AirNav   ProFlight Series 2 Aviation Headset
 
 1045 users online  

4PA0 Flicksville Heliport
Flicksville, Pennsylvania, USA

GOING TO FLICKSVILLE?


FAA INFORMATION EFFECTIVE 18 JUNE 2020

Location

FAA Identifier: 4PA0
Lat/Long: 40-50-35.5000N 075-12-19.1500W
40-50.591667N 075-12.319167W
40.8431944,-75.2053194
(estimated)
Elevation: 447 ft. / 136 m (estimated)
From city: 2 miles S of FLICKSVILLE, PA
Time zone: UTC -4 (UTC -5 during Standard Time)
Zip code: 18013

Heliport Operations

Heliport use: Private use. Permission required prior to landing
Activation date: 03/2011
Control tower: no
ARTCC: NEW YORK CENTER
FSS: WILLIAMSPORT FLIGHT SERVICE STATION
Attendance: MON-FRI 1200-2200
Wind indicator: yes
Segmented circle: no

Heliport Communications

WX ASOS at ABE (16 nm SW): 126.975 (610-266-3579)
WX ASOS at MPO (19 nm NW): 120.275 (570-839-1584)
WX AWOS-3 at N40 (20 nm SE): 121.725

Nearby radio navigation aids

VOR radial/distance  VOR name  Freq  Var
FJCr068/13.3ALLENTOWN VORTAC117.5010W
BWZr290/17.6BROADWAY VOR/DME114.2011W
STWr250/17.8STILLWATER VOR/DME109.6011W
SBJr317/26.2SOLBERG VOR/DME112.9010W
ETXr063/26.9EAST TEXAS VOR/DME110.2009W
SAXr257/33.1SPARTA VORTAC115.7011W
LVZr150/33.8WILKES-BARRE VORTAC111.6010W
ARDr349/37.9YARDLEY VOR/DME108.2010W

 
NDB name  Hdg/Dist  Freq  Var  ID
CHATHAM293/35.825413WCAT -.-. .- -

Heliport Services

Runway Information

Helipad H1

Dimensions: 50 x 50 ft. / 15 x 15 m
Surface: asphalt, in good condition
Traffic pattern: leftleft

Heliport Ownership and Management from official FAA records

Ownership: Privately-owned
Owner: CARL TOLINO
240 FLICKSVILLE ROAD
BANGOR, PA 18013
Phone 484-221-1028
Manager: CARL TOLINO
240 FLICKSVILLE ROAD
BANGOR, PA 18013
Phone 484-221-1028

Heliport Operational Statistics

Aircraft based on the field: 1
Helicopters: 1
    

Additional Remarks

FOR CD CTC ALLENTOWN APCH AT 800-728-6322.

Instrument Procedures

There are no published instrument procedures at 4PA0.

Some nearby airports with instrument procedures:

N43 - Braden Airpark (6 nm S)
N53 - Stroudsburg-Pocono Airport (12 nm N)
1N7 - Blairstown Airport (12 nm NE)
KABE - Lehigh Valley International Airport (16 nm SW)
N85 - Alexandria Airport (18 nm SE)
KMPO - Pocono Mountains Municipal Airport (19 nm NW)
N40 - Sky Manor Airport (20 nm SE)
 
Loc | Ops | Rwys | IFR | FBO | Links
Com | Nav | Svcs | Stats | Notes
Aerial photo
No photo
 
Sectional chart

 
Airport distance calculator
Flying to Flicksville Heliport? Find the distance to fly.

From to 4PA0

Sunrise and sunset
Times for 02-Jul-2020
 Local
(UTC-4)
 Zulu
(UTC)
Morning civil twilight05:0209:02
Sunrise05:3509:35
Sunset20:3500:35
Evening civil twilight21:0801:08

Current date and time
Zulu (UTC)  02-Jul-2020 23:27:10
Local (UTC-4)  02-Jul-2020 19:27:10
 
METAR
KABE 
16nm SW 
022251Z 31005KT 10SM CLR 31/18 A2981 RMK AO2 SLP093 T03060178
KMPO 
19nm NW 
022253Z AUTO 31010KT 10SM CLR 27/16 A2991 RMK AO2 SLP114 T02670156
KXLL 
21nm SW 
022315Z AUTO 28005KT 10SM CLR 31/18 A2984 RMK AO2
K12N 
24nm NE 
022254Z AUTO 00000KT 28/21 A2982 RMK AO1 SLP091 T02780211
K22N 
25nm W 
022315Z AUTO 00000KT 10SM CLR 31/17 A2984 RMK AO2
KUKT 
26nm S 
022320Z AUTO 30003KT 10SM CLR 31/18 A2984 RMK A01
KCKZ 
28nm S 
022315Z AUTO 32005KT 10SM FEW120 31/17 A2984 RMK AO2
KSMQ 
28nm SE 
ASOS 120.60 908-722-2139
022253Z AUTO 00000KT 10SM FEW100 SCT120 28/19 A2977 RMK AO2 RAB41E51 SLP082 P0000 T02830194
KDYL 
31nm S 
022254Z AUTO 35005KT 10SM FEW080 SCT110 33/16 A2980 RMK AO2 SLP085 T03330161
TAF
KABE 
16nm SW 
021720Z 0218/0318 34009KT P6SM SCT060 FM030000 32006KT P6SM SCT200 FM031400 32005KT P6SM SCT100
NOTAMs
Click for the latest NOTAMs
NOTAMs are issued by the DoD/FAA and will open in a separate window not controlled by AirNav.

 

 
 

Would you like to see your business listed on this page?

 If your business provides an interesting product or service to pilots, flight crews, aircraft, or users of the Flicksville Heliport, you should consider listing it here.  To start the listing process, click on the button below
 
Add a business
 

Other Pages about Flicksville Heliport

Update a link
 
Copyright © AirNav, LLC. All rights reserved. Privacy Policy  Contact